LNI12 WIII-WADD

Flight info

Callsign LNI12
Flight time 1h 25m
Altitude 37000
Route CA2B CA T3 MOVMO MOVM1E
Aircraft B738/M-VGDW/C

Departure

Time 2026-05-07 15:39
Airport Soekarno-Hatta International Airport (WIII)

Arrival

Time 2026-05-07 17:04
Airport Denpasar I Gusti Ngurah Rai International Airport (WADD)
Time Latitude Longitude Altitude Speed Heading
2026-05-07 15:15 -6.12980 106.65953 37 ft 0 kts 341°
2026-05-07 15:26 -6.12996 106.65959 35 ft 4 kts 341°
2026-05-07 15:26 -6.13021 106.65967 37 ft 3 kts 341°
2026-05-07 15:27 -6.13043 106.65972 37 ft 4 kts 16°
2026-05-07 15:27 -6.13062 106.65958 34 ft 4 kts 61°
2026-05-07 15:27 -6.13066 106.65952 33 ft 1 kts 64°
2026-05-07 15:29 -6.13058 106.65968 34 ft 5 kts 64°
2026-05-07 15:30 -6.13040 106.66008 37 ft 7 kts 67°
2026-05-07 15:30 -6.13023 106.66051 37 ft 6 kts 70°
2026-05-07 15:30 -6.13008 106.66093 36 ft 6 kts 69°
2026-05-07 15:30 -6.12998 106.66135 37 ft 6 kts 94°
2026-05-07 15:31 -6.13021 106.66170 36 ft 6 kts 145°
2026-05-07 15:31 -6.13066 106.66191 37 ft 8 kts 158°
2026-05-07 15:31 -6.13125 106.66214 37 ft 10 kts 158°
2026-05-07 15:31 -6.13201 106.66245 37 ft 13 kts 158°
2026-05-07 15:32 -6.13293 106.66253 38 ft 14 kts 219°
2026-05-07 15:32 -6.13337 106.66157 37 ft 16 kts 248°
2026-05-07 15:32 -6.13381 106.66046 37 ft 18 kts 248°
2026-05-07 15:32 -6.13431 106.65921 36 ft 20 kts 248°
2026-05-07 15:33 -6.13485 106.65785 37 ft 21 kts 248°
2026-05-07 15:33 -6.13539 106.65649 37 ft 21 kts 248°
2026-05-07 15:33 -6.13591 106.65518 36 ft 20 kts 248°
2026-05-07 15:33 -6.13642 106.65390 35 ft 19 kts 248°
2026-05-07 15:34 -6.13692 106.65267 36 ft 19 kts 248°
2026-05-07 15:34 -6.13739 106.65149 38 ft 18 kts 248°
2026-05-07 15:34 -6.13784 106.65033 38 ft 17 kts 249°
2026-05-07 15:34 -6.13829 106.64922 38 ft 17 kts 248°
2026-05-07 15:35 -6.13872 106.64815 37 ft 16 kts 248°
2026-05-07 15:35 -6.13914 106.64712 38 ft 16 kts 248°
2026-05-07 15:35 -6.13954 106.64612 38 ft 15 kts 248°
2026-05-07 15:35 -6.13991 106.64517 36 ft 14 kts 248°
2026-05-07 15:36 -6.14028 106.64426 37 ft 14 kts 248°
2026-05-07 15:36 -6.14063 106.64340 37 ft 13 kts 243°
2026-05-07 15:36 -6.14103 106.64301 38 ft 0 kts 204°
2026-05-07 15:37 -6.14104 106.64301 38 ft 1 kts 204°
2026-05-07 15:38 -6.14129 106.64295 38 ft 8 kts 184°
2026-05-07 15:38 -6.14192 106.64332 38 ft 14 kts 124°
2026-05-07 15:38 -6.14222 106.64429 39 ft 17 kts 70°
2026-05-07 15:38 -6.14131 106.64658 34 ft 68 kts 68°
2026-05-07 15:39 -6.13864 106.65326 38 ft 135 kts 68°
2026-05-07 15:39 -6.13467 106.66348 310 ft 166 kts 70°
2026-05-07 15:39 -6.13040 106.67449 1024 ft 172 kts 69°
2026-05-07 15:39 -6.12599 106.68579 1801 ft 173 kts 70°
2026-05-07 15:40 -6.12158 106.69693 2655 ft 172 kts 70°
2026-05-07 15:40 -6.11698 106.70845 3248 ft 190 kts 70°
2026-05-07 15:40 -6.11352 106.71701 3396 ft 209 kts 70°
2026-05-07 15:40 -6.10600 106.73647 3650 ft 242 kts 78°
2026-05-07 15:41 -6.10469 106.75388 4027 ft 257 kts 90°
2026-05-07 15:41 -6.10444 106.77221 4766 ft 265 kts 90°
2026-05-07 15:41 -6.10410 106.79078 5655 ft 266 kts 90°
2026-05-07 15:41 -6.10385 106.80313 6258 ft 266 kts 89°
2026-05-07 15:42 -6.10345 106.82185 7067 ft 269 kts 89°
2026-05-07 15:42 -6.10286 106.84727 8074 ft 275 kts 89°
2026-05-07 15:42 -6.10256 106.86002 8576 ft 277 kts 89°
2026-05-07 15:42 -6.10208 106.87951 9360 ft 281 kts 89°
2026-05-07 15:43 -6.10214 106.89933 10063 ft 286 kts 98°
2026-05-07 15:43 -6.10751 106.91926 10309 ft 308 kts 109°
2026-05-07 15:43 -6.11532 106.94020 10484 ft 330 kts 111°
2026-05-07 15:43 -6.12378 106.96209 10904 ft 340 kts 111°
2026-05-07 15:44 -6.13237 106.98448 11507 ft 345 kts 111°
2026-05-07 15:44 -6.14091 107.00710 12146 ft 348 kts 110°
2026-05-07 15:44 -6.14944 107.03002 12773 ft 352 kts 110°
2026-05-07 15:44 -6.15797 107.05323 13388 ft 356 kts 110°
2026-05-07 15:45 -6.16655 107.07676 13951 ft 360 kts 110°
2026-05-07 15:45 -6.17518 107.10054 14503 ft 363 kts 110°
2026-05-07 15:45 -6.18383 107.12449 15068 ft 366 kts 110°
2026-05-07 15:45 -6.19254 107.14865 15619 ft 369 kts 110°
2026-05-07 15:46 -6.21003 107.19722 16660 ft 376 kts 110°
2026-05-07 15:46 -6.21897 107.22207 17175 ft 379 kts 110°
2026-05-07 15:46 -6.22797 107.24708 17693 ft 382 kts 110°
2026-05-07 15:47 -6.23703 107.27229 18186 ft 385 kts 110°
2026-05-07 15:47 -6.24619 107.29776 18625 ft 388 kts 110°
2026-05-07 15:47 -6.25538 107.32335 19066 ft 391 kts 110°
2026-05-07 15:47 -6.26465 107.34913 19495 ft 394 kts 110°
2026-05-07 15:48 -6.27400 107.37515 19921 ft 396 kts 110°
2026-05-07 15:48 -6.28338 107.40127 20340 ft 399 kts 110°
2026-05-07 15:48 -6.29285 107.42762 20755 ft 402 kts 110°
2026-05-07 15:48 -6.30238 107.45416 21157 ft 405 kts 109°
2026-05-07 15:49 -6.31198 107.48089 21558 ft 408 kts 109°
2026-05-07 15:49 -6.32165 107.50782 21963 ft 411 kts 109°
2026-05-07 15:49 -6.33137 107.53491 22343 ft 413 kts 109°
2026-05-07 15:49 -6.34117 107.56221 22724 ft 416 kts 109°
2026-05-07 15:50 -6.35101 107.58964 23106 ft 419 kts 109°
2026-05-07 15:50 -6.36093 107.61730 23473 ft 422 kts 109°
2026-05-07 15:50 -6.37091 107.64512 23778 ft 424 kts 109°
2026-05-07 15:50 -6.38093 107.67306 24112 ft 426 kts 109°
2026-05-07 15:51 -6.39102 107.70120 24431 ft 428 kts 109°
2026-05-07 15:51 -6.40112 107.72936 24735 ft 430 kts 109°
2026-05-07 15:51 -6.41127 107.75767 25023 ft 432 kts 109°
2026-05-07 15:51 -6.42147 107.78614 25313 ft 434 kts 109°
2026-05-07 15:52 -6.43175 107.81482 25594 ft 436 kts 109°
2026-05-07 15:52 -6.44191 107.84319 25892 ft 438 kts 109°
2026-05-07 15:52 -6.45224 107.87204 26176 ft 440 kts 109°
2026-05-07 15:52 -6.46262 107.90101 26447 ft 442 kts 109°
2026-05-07 15:53 -6.47305 107.93014 26717 ft 444 kts 109°
2026-05-07 15:53 -6.48351 107.95938 26983 ft 446 kts 109°
2026-05-07 15:53 -6.49404 107.98880 27247 ft 448 kts 109°
2026-05-07 15:53 -6.50459 108.01829 27510 ft 449 kts 109°
2026-05-07 15:54 -6.51520 108.04794 27759 ft 451 kts 109°
2026-05-07 15:54 -6.52583 108.07766 28017 ft 453 kts 109°
2026-05-07 15:54 -6.53650 108.10750 28292 ft 454 kts 109°
2026-05-07 15:54 -6.54720 108.13744 28536 ft 455 kts 109°
2026-05-07 15:55 -6.55795 108.16751 28727 ft 458 kts 109°
2026-05-07 15:55 -6.56876 108.19777 28927 ft 460 kts 109°
2026-05-07 15:55 -6.57958 108.22805 29179 ft 461 kts 109°
2026-05-07 15:55 -6.59043 108.25843 29427 ft 462 kts 109°
2026-05-07 15:56 -6.60132 108.28893 29608 ft 465 kts 109°
2026-05-07 15:56 -6.61228 108.31962 29793 ft 467 kts 109°
2026-05-07 15:56 -6.62328 108.35043 30013 ft 467 kts 109°
2026-05-07 15:56 -6.63414 108.38087 30195 ft 468 kts 109°
2026-05-07 15:57 -6.64515 108.41175 30357 ft 470 kts 109°
2026-05-07 15:57 -6.65621 108.44274 30554 ft 471 kts 109°
2026-05-07 15:57 -6.66728 108.47380 30805 ft 470 kts 109°
2026-05-07 15:57 -6.67831 108.50472 31067 ft 469 kts 109°
2026-05-07 15:58 -6.68931 108.53558 31283 ft 470 kts 109°
2026-05-07 15:58 -6.69946 108.56685 31500 ft 470 kts 103°
2026-05-07 15:58 -6.70548 108.59912 31758 ft 468 kts 98°
2026-05-07 15:58 -6.71032 108.63148 32025 ft 467 kts 98°
2026-05-07 15:59 -6.71492 108.66384 32251 ft 468 kts 98°
2026-05-07 15:59 -6.71952 108.69625 32499 ft 467 kts 98°
2026-05-07 15:59 -6.72421 108.72862 32756 ft 467 kts 98°
2026-05-07 15:59 -6.72901 108.76096 33019 ft 467 kts 98°
2026-05-07 16:00 -6.73389 108.79322 33274 ft 466 kts 98°
2026-05-07 16:00 -6.73881 108.82547 33510 ft 466 kts 98°
2026-05-07 16:00 -6.74377 108.85772 33757 ft 466 kts 98°
2026-05-07 16:00 -6.74866 108.88954 34006 ft 466 kts 98°
2026-05-07 16:01 -6.75362 108.92174 34249 ft 465 kts 98°
2026-05-07 16:01 -6.75856 108.95390 34483 ft 464 kts 98°
2026-05-07 16:01 -6.76349 108.98604 34698 ft 465 kts 98°
2026-05-07 16:01 -6.76841 109.01812 34928 ft 464 kts 98°
2026-05-07 16:02 -6.77332 109.05018 35154 ft 464 kts 98°
2026-05-07 16:02 -6.77823 109.08224 35365 ft 464 kts 98°
2026-05-07 16:02 -6.78313 109.11426 35607 ft 463 kts 98°
2026-05-07 16:02 -6.78802 109.14626 35824 ft 462 kts 98°
2026-05-07 16:03 -6.79291 109.17826 36016 ft 462 kts 98°
2026-05-07 16:03 -6.79780 109.21024 36225 ft 462 kts 98°
2026-05-07 16:03 -6.80268 109.24221 36449 ft 461 kts 98°
2026-05-07 16:03 -6.80755 109.27413 36662 ft 461 kts 98°
2026-05-07 16:04 -6.81236 109.30560 36850 ft 461 kts 98°
2026-05-07 16:04 -6.82212 109.36965 36891 ft 464 kts 98°
2026-05-07 16:05 -6.83187 109.43366 36878 ft 460 kts 98°
2026-05-07 16:05 -6.84153 109.49707 36885 ft 457 kts 98°
2026-05-07 16:06 -6.85113 109.56020 36881 ft 455 kts 98°
2026-05-07 16:06 -6.86069 109.62312 36882 ft 454 kts 98°
2026-05-07 16:07 -6.87024 109.68605 36885 ft 455 kts 98°
2026-05-07 16:07 -6.87979 109.74904 36908 ft 456 kts 98°
2026-05-07 16:08 -6.88938 109.81229 36915 ft 458 kts 98°
2026-05-07 16:08 -6.89894 109.87548 36913 ft 461 kts 98°
2026-05-07 16:09 -6.90862 109.93945 36904 ft 463 kts 98°
2026-05-07 16:09 -6.91832 110.00364 36902 ft 465 kts 98°
2026-05-07 16:10 -6.92803 110.06799 36898 ft 466 kts 98°
2026-05-07 16:10 -6.93778 110.13259 36889 ft 466 kts 98°
2026-05-07 16:11 -6.94751 110.19716 36881 ft 467 kts 98°
2026-05-07 16:11 -6.95716 110.26130 36878 ft 466 kts 98°
2026-05-07 16:12 -6.96686 110.32579 36887 ft 465 kts 98°
2026-05-07 16:12 -6.97594 110.39026 36873 ft 464 kts 94°
2026-05-07 16:13 -6.97786 110.45518 36883 ft 463 kts 90°
2026-05-07 16:13 -6.97812 110.51998 36884 ft 463 kts 90°
2026-05-07 16:14 -6.97877 110.58465 36879 ft 462 kts 91°
2026-05-07 16:14 -6.97983 110.64931 36866 ft 462 kts 91°
2026-05-07 16:15 -6.98100 110.71389 36877 ft 461 kts 91°
2026-05-07 16:15 -6.98217 110.77852 36873 ft 461 kts 91°
2026-05-07 16:16 -6.98330 110.84269 36864 ft 462 kts 91°
2026-05-07 16:16 -6.98442 110.90734 36879 ft 462 kts 91°
2026-05-07 16:17 -6.98553 110.97206 36874 ft 462 kts 91°
2026-05-07 16:17 -6.98664 111.03692 36876 ft 463 kts 91°
2026-05-07 16:18 -6.98774 111.10174 36865 ft 463 kts 91°
2026-05-07 16:18 -6.98884 111.16668 36870 ft 464 kts 91°
2026-05-07 16:19 -6.98992 111.23161 36884 ft 464 kts 91°
2026-05-07 16:19 -6.99099 111.29626 36880 ft 465 kts 91°
2026-05-07 16:20 -6.99206 111.36128 36882 ft 465 kts 91°
2026-05-07 16:20 -6.99780 111.42591 36882 ft 464 kts 104°
2026-05-07 16:21 -7.01987 111.48674 36891 ft 463 kts 114°
2026-05-07 16:21 -7.04557 111.54626 36884 ft 463 kts 114°
2026-05-07 16:22 -7.07108 111.60583 36872 ft 463 kts 114°
2026-05-07 16:22 -7.09624 111.66559 36885 ft 463 kts 113°
2026-05-07 16:23 -7.12126 111.72545 36877 ft 463 kts 113°
2026-05-07 16:23 -7.14622 111.78526 36880 ft 463 kts 113°
2026-05-07 16:24 -7.17119 111.84510 36879 ft 463 kts 113°
2026-05-07 16:24 -7.19598 111.90449 36878 ft 463 kts 113°
2026-05-07 16:25 -7.22093 111.96428 36880 ft 462 kts 113°
2026-05-07 16:25 -7.24581 112.02395 36878 ft 462 kts 113°
2026-05-07 16:26 -7.27066 112.08355 36879 ft 461 kts 113°
2026-05-07 16:26 -7.29552 112.14322 36880 ft 461 kts 113°
2026-05-07 16:27 -7.31614 112.19272 36884 ft 461 kts 113°
2026-05-07 16:27 -7.34094 112.25228 36874 ft 461 kts 113°
2026-05-07 16:28 -7.36573 112.31185 36879 ft 461 kts 113°
2026-05-07 16:28 -7.39054 112.37148 36878 ft 461 kts 113°
2026-05-07 16:29 -7.41535 112.43115 36873 ft 461 kts 113°
2026-05-07 16:29 -7.44014 112.49079 36891 ft 462 kts 113°
2026-05-07 16:30 -7.46483 112.55022 36889 ft 463 kts 113°
2026-05-07 16:30 -7.48971 112.61011 36889 ft 463 kts 113°
2026-05-07 16:31 -7.51461 112.67009 36886 ft 464 kts 113°
2026-05-07 16:31 -7.53952 112.73013 36886 ft 464 kts 113°
2026-05-07 16:32 -7.56443 112.79019 36887 ft 465 kts 113°
2026-05-07 16:32 -7.58934 112.85028 36885 ft 464 kts 113°
2026-05-07 16:33 -7.61407 112.90997 36886 ft 464 kts 113°
2026-05-07 16:33 -7.63893 112.96999 36888 ft 464 kts 113°
2026-05-07 16:34 -7.66377 113.02999 36878 ft 463 kts 113°
2026-05-07 16:34 -7.68859 113.08996 36911 ft 463 kts 114°
2026-05-07 16:35 -7.71336 113.14984 36897 ft 462 kts 114°
2026-05-07 16:35 -7.73810 113.20969 36819 ft 464 kts 114°
2026-05-07 16:35 -7.75060 113.23994 36342 ft 467 kts 114°
2026-05-07 16:36 -7.76300 113.26994 35974 ft 461 kts 113°
2026-05-07 16:36 -7.77528 113.29967 35546 ft 458 kts 113°
2026-05-07 16:36 -7.78733 113.32887 35133 ft 455 kts 113°
2026-05-07 16:36 -7.79944 113.35820 34707 ft 452 kts 113°
2026-05-07 16:37 -7.81149 113.38739 34295 ft 450 kts 113°
2026-05-07 16:37 -7.82350 113.41647 33872 ft 448 kts 113°
2026-05-07 16:37 -7.83544 113.44541 33420 ft 445 kts 113°
2026-05-07 16:37 -7.84729 113.47413 32997 ft 442 kts 113°
2026-05-07 16:38 -7.85906 113.50267 32588 ft 439 kts 113°
2026-05-07 16:38 -7.87076 113.53104 32180 ft 436 kts 113°
2026-05-07 16:38 -7.88236 113.55919 31784 ft 433 kts 113°
2026-05-07 16:38 -7.89389 113.58715 31387 ft 431 kts 113°
2026-05-07 16:39 -7.90536 113.61499 30989 ft 428 kts 113°
2026-05-07 16:39 -7.91673 113.64259 30587 ft 426 kts 113°
2026-05-07 16:39 -7.92813 113.67028 30210 ft 424 kts 113°
2026-05-07 16:39 -7.93942 113.69768 29765 ft 423 kts 113°
2026-05-07 16:40 -7.95066 113.72499 29324 ft 420 kts 113°
2026-05-07 16:40 -7.96181 113.75207 28894 ft 416 kts 113°
2026-05-07 16:40 -7.97286 113.77894 28487 ft 413 kts 113°
2026-05-07 16:40 -7.98381 113.80556 28083 ft 409 kts 113°
2026-05-07 16:41 -7.99468 113.83198 27688 ft 406 kts 113°
2026-05-07 16:41 -8.00580 113.85804 27288 ft 403 kts 119°
2026-05-07 16:41 -8.02276 113.88018 26879 ft 398 kts 141°
2026-05-07 16:41 -8.04563 113.89529 26516 ft 392 kts 156°
2026-05-07 16:42 -8.07112 113.90318 26142 ft 387 kts 172°
2026-05-07 16:42 -8.09772 113.90688 25748 ft 385 kts 174°
2026-05-07 16:42 -8.12436 113.90989 25360 ft 383 kts 175°
2026-05-07 16:42 -8.15088 113.91276 24957 ft 382 kts 175°
2026-05-07 16:43 -8.17730 113.91569 24562 ft 381 kts 175°
2026-05-07 16:43 -8.20364 113.91873 24170 ft 381 kts 174°
2026-05-07 16:43 -8.23000 113.92186 23776 ft 380 kts 174°
2026-05-07 16:43 -8.25588 113.92500 23358 ft 379 kts 174°
2026-05-07 16:44 -8.28201 113.92820 22923 ft 377 kts 174°
2026-05-07 16:44 -8.30799 113.93141 22523 ft 375 kts 174°
2026-05-07 16:44 -8.33381 113.93460 22124 ft 372 kts 174°
2026-05-07 16:44 -8.35946 113.93777 21738 ft 369 kts 174°
2026-05-07 16:45 -8.38490 113.94092 21362 ft 367 kts 174°
2026-05-07 16:45 -8.41015 113.94404 20982 ft 364 kts 174°
2026-05-07 16:45 -8.43527 113.94714 20601 ft 362 kts 174°
2026-05-07 16:45 -8.46025 113.95023 20217 ft 360 kts 174°
2026-05-07 16:46 -8.48507 113.95330 19829 ft 359 kts 174°
2026-05-07 16:46 -8.50984 113.95636 19458 ft 357 kts 174°
2026-05-07 16:46 -8.53411 113.95936 19099 ft 355 kts 174°
2026-05-07 16:46 -8.55866 113.96239 18715 ft 354 kts 174°
2026-05-07 16:47 -8.58258 113.96765 18321 ft 354 kts 157°
2026-05-07 16:47 -8.60293 113.98140 17949 ft 353 kts 136°
2026-05-07 16:47 -8.61763 114.00115 17557 ft 353 kts 117°
2026-05-07 16:47 -8.62647 114.02420 17207 ft 350 kts 109°
2026-05-07 16:48 -8.63393 114.04757 16835 ft 348 kts 109°
2026-05-07 16:48 -8.64128 114.07085 16467 ft 346 kts 109°
2026-05-07 16:48 -8.64880 114.09390 16111 ft 344 kts 109°
2026-05-07 16:48 -8.65638 114.11673 15755 ft 341 kts 110°
2026-05-07 16:49 -8.66397 114.13940 15402 ft 339 kts 110°
2026-05-07 16:49 -8.67153 114.16195 15059 ft 337 kts 110°
2026-05-07 16:49 -8.67904 114.18435 14721 ft 335 kts 110°
2026-05-07 16:49 -8.68651 114.20662 14352 ft 334 kts 110°
2026-05-07 16:50 -8.69384 114.22850 14008 ft 332 kts 110°
2026-05-07 16:50 -8.70124 114.25060 13653 ft 331 kts 110°
2026-05-07 16:50 -8.70860 114.27260 13262 ft 329 kts 110°
2026-05-07 16:50 -8.71592 114.29446 12904 ft 327 kts 109°
2026-05-07 16:51 -8.72316 114.31611 12548 ft 324 kts 109°
2026-05-07 16:51 -8.73036 114.33764 12212 ft 322 kts 109°
2026-05-07 16:51 -8.73748 114.35892 11912 ft 317 kts 109°
2026-05-07 16:51 -8.74449 114.37990 11600 ft 315 kts 109°
2026-05-07 16:52 -8.75147 114.40079 11261 ft 313 kts 109°
2026-05-07 16:52 -8.75841 114.42155 10939 ft 311 kts 109°
2026-05-07 16:52 -8.76530 114.44216 10610 ft 309 kts 108°
2026-05-07 16:52 -8.77217 114.46272 10314 ft 306 kts 108°
2026-05-07 16:53 -8.77884 114.48269 10152 ft 293 kts 108°
2026-05-07 16:53 -8.78523 114.50183 10012 ft 283 kts 108°
2026-05-07 16:53 -8.79152 114.52068 9718 ft 282 kts 108°
2026-05-07 16:53 -8.79776 114.53940 9413 ft 281 kts 108°
2026-05-07 16:54 -8.80399 114.55807 9116 ft 279 kts 108°
2026-05-07 16:54 -8.81008 114.57634 8829 ft 277 kts 108°
2026-05-07 16:54 -8.81622 114.59475 8541 ft 275 kts 108°
2026-05-07 16:54 -8.82233 114.61307 8243 ft 274 kts 109°
2026-05-07 16:55 -8.82840 114.63129 7970 ft 273 kts 109°
2026-05-07 16:55 -8.83447 114.64950 7675 ft 272 kts 109°
2026-05-07 16:55 -8.84050 114.66758 7382 ft 271 kts 109°
2026-05-07 16:55 -8.84395 114.68613 7077 ft 272 kts 87°
2026-05-07 16:56 -8.83985 114.70476 6816 ft 272 kts 72°
2026-05-07 16:56 -8.83289 114.72255 6510 ft 272 kts 69°
2026-05-07 16:56 -8.81806 114.75729 5901 ft 263 kts 69°
2026-05-07 16:57 -8.81089 114.77426 5642 ft 262 kts 69°
2026-05-07 16:57 -8.80382 114.79118 5370 ft 261 kts 69°
2026-05-07 16:57 -8.79683 114.80806 5100 ft 260 kts 69°
2026-05-07 16:57 -8.78989 114.82489 4831 ft 258 kts 70°
2026-05-07 16:58 -8.78311 114.84140 4570 ft 257 kts 70°
2026-05-07 16:58 -8.77626 114.85812 4288 ft 256 kts 70°
2026-05-07 16:58 -8.76945 114.87474 4021 ft 255 kts 70°
2026-05-07 16:58 -8.76271 114.89118 3862 ft 249 kts 70°
2026-05-07 16:59 -8.75747 114.90747 3720 ft 240 kts 87°
2026-05-07 16:59 -8.75773 114.92391 3644 ft 229 kts 92°
2026-05-07 16:59 -8.75743 114.93976 3537 ft 221 kts 89°
2026-05-07 16:59 -8.75679 114.95501 3437 ft 214 kts 89°
2026-05-07 17:00 -8.75616 114.96988 3259 ft 210 kts 89°
2026-05-07 17:00 -8.75557 114.98435 3104 ft 202 kts 90°
2026-05-07 17:00 -8.75502 114.99821 2920 ft 194 kts 90°
2026-05-07 17:00 -8.75449 115.01163 2694 ft 188 kts 90°
2026-05-07 17:01 -8.75398 115.02463 2477 ft 182 kts 90°
2026-05-07 17:01 -8.75349 115.03729 2237 ft 178 kts 89°
2026-05-07 17:01 -8.75301 115.04968 1994 ft 173 kts 90°
2026-05-07 17:01 -8.75253 115.06163 1775 ft 165 kts 90°
2026-05-07 17:02 -8.75210 115.07257 1575 ft 152 kts 90°
2026-05-07 17:02 -8.75170 115.08295 1430 ft 148 kts 90°
2026-05-07 17:02 -8.75130 115.09342 1213 ft 147 kts 90°
2026-05-07 17:02 -8.75089 115.10377 1013 ft 147 kts 90°
2026-05-07 17:03 -8.75049 115.11413 833 ft 149 kts 90°
2026-05-07 17:03 -8.75011 115.12442 664 ft 143 kts 89°
2026-05-07 17:03 -8.74965 115.13445 472 ft 143 kts 90°
2026-05-07 17:03 -8.74934 115.14468 208 ft 146 kts 90°
2026-05-07 17:04 -8.74893 115.15473 59 ft 142 kts 89°
2026-05-07 17:04 -8.74859 115.16401 28 ft 111 kts 86°
2026-05-07 17:04 -8.74834 115.16966 27 ft 50 kts 88°
2026-05-07 17:04 -8.74824 115.17212 26 ft 23 kts 88°
2026-05-07 17:05 -8.74788 115.17311 26 ft 14 kts 24°
2026-05-07 17:05 -8.74696 115.17309 30 ft 13 kts 340°
2026-05-07 17:05 -8.74656 115.17236 31 ft 13 kts 265°
2026-05-07 17:05 -8.74662 115.17148 31 ft 12 kts 266°
2026-05-07 17:06 -8.74665 115.17062 31 ft 12 kts 268°
2026-05-07 17:06 -8.74668 115.16978 31 ft 12 kts 268°
2026-05-07 17:06 -8.74672 115.16896 31 ft 11 kts 267°
2026-05-07 17:06 -8.74675 115.16821 31 ft 11 kts 267°
2026-05-07 17:07 -8.74678 115.16744 31 ft 11 kts 267°
2026-05-07 17:07 -8.74681 115.16667 31 ft 11 kts 267°
2026-05-07 17:07 -8.74685 115.16580 31 ft 14 kts 268°
2026-05-07 17:07 -8.74690 115.16477 31 ft 15 kts 268°
2026-05-07 17:08 -8.74694 115.16373 32 ft 14 kts 268°
2026-05-07 17:08 -8.74693 115.16290 32 ft 9 kts 296°
2026-05-07 17:08 -8.74636 115.16277 32 ft 9 kts 357°
2026-05-07 17:08 -8.74585 115.16275 32 ft 2 kts 358°
2026-05-07 17:09 -8.74569 115.16274 32 ft 2 kts 358°